| time (UTC) | temp F | wind direction | speed MPH | gust MPH | rain 1hr in | rain 24hr in | rain mn in | humidity % | barometer mb |
| 20260906150342 | 83 | 248 | 1.0 | 3.0 | 0.00 | 0.14 | 0.00 | 48 | 1011.9 |
| 20260906145839 | 83 | 221 | 0.0 | 2.0 | 0.00 | 0.14 | 0.00 | 52 | 1011.8 |
| 20260906145353 | 82 | 253 | 1.0 | 2.0 | 0.00 | 0.14 | 0.00 | 50 | 1011.8 |
| 20260906144839 | 82 | 97 | 0.0 | 3.0 | 0.00 | 0.14 | 0.00 | 54 | 1011.7 |
| 20260906144336 | 82 | 103 | 0.0 | 3.0 | 0.00 | 0.14 | 0.00 | 54 | 1011.7 |
| 20260906143834 | 81 | 159 | 0.0 | 3.0 | 0.00 | 0.14 | 0.00 | 54 | 1011.7 |
| 20260906143334 | 81 | 123 | 1.0 | 2.0 | 0.00 | 0.14 | 0.00 | 55 | 1011.6 |
| 20260906142840 | 81 | 95 | 0.0 | 2.0 | 0.00 | 0.14 | 0.00 | 53 | 1011.6 |
| 20260906142347 | 81 | 360 | 0.0 | 4.0 | 0.00 | 0.14 | 0.00 | 54 | 1011.6 |
| 20260906141831 | 80 | 109 | 1.0 | 4.0 | 0.00 | 0.14 | 0.00 | 52 | 1011.6 |
| 20260906141325 | 80 | 229 | 0.0 | 2.0 | 0.00 | 0.14 | 0.00 | 55 | 1011.5 |
| 20260906140852 | 80 | 186 | 0.0 | 3.0 | 0.00 | 0.14 | 0.00 | 54 | 1011.5 |
| 20260906140336 | 80 | 94 | 1.0 | 3.0 | 0.00 | 0.14 | 0.00 | 57 | 1011.5 |
| 20260906135849 | 79 | 169 | 0.0 | 3.0 | 0.00 | 0.14 | 0.00 | 62 | 1011.4 |
| 20260906135349 | 79 | 106 | 0.0 | 2.0 | 0.00 | 0.14 | 0.00 | 63 | 1011.3 |
| 20260906134839 | 79 | 241 | 0.0 | 2.0 | 0.00 | 0.14 | 0.00 | 64 | 1011.4 |
| 20260906134329 | 79 | 232 | 0.0 | 2.0 | 0.00 | 0.14 | 0.00 | 65 | 1011.4 |
| 20260906133844 | 79 | 118 | 0.0 | 3.0 | 0.00 | 0.14 | 0.00 | 66 | 1011.4 |
| 20260906133345 | 78 | 217 | 0.0 | 3.0 | 0.00 | 0.14 | 0.00 | 66 | 1011.4 |
| 20260906132850 | 78 | 84 | 0.0 | 2.0 | 0.00 | 0.14 | 0.00 | 65 | 1011.3 |
| 20260906132351 | 78 | 81 | 0.0 | 2.0 | 0.00 | 0.14 | 0.00 | 69 | 1011.3 |
| 20260906131838 | 78 | 208 | 0.0 | 2.0 | 0.00 | 0.14 | 0.00 | 69 | 1011.3 |
| 20260906131340 | 77 | 239 | 0.0 | 3.0 | 0.00 | 0.14 | 0.00 | 70 | 1011.2 |
| 20260906130838 | 77 | 148 | 0.0 | 3.0 | 0.00 | 0.14 | 0.00 | 71 | 1011.2 |
| 20260906130342 | 77 | 97 | 0.0 | 2.0 | 0.00 | 0.14 | 0.00 | 72 | 1011.2 |
| 20260906125854 | 76 | 189 | 0.0 | 4.0 | 0.00 | 0.14 | 0.00 | 72 | 1011.2 |
| 20260906125329 | 76 | 202 | 1.0 | 3.0 | 0.00 | 0.14 | 0.00 | 73 | 1011.2 |
| 20260906124847 | 76 | 134 | 0.0 | 2.0 | 0.00 | 0.14 | 0.00 | 74 | 1011.1 |
| 20260906124348 | 75 | 22 | 0.0 | 2.0 | 0.00 | 0.14 | 0.00 | 77 | 1011.1 |
| 20260906123903 | 75 | 22 | 0.0 | 2.0 | 0.00 | 0.14 | 0.00 | 75 | 1011.1 |
| 20260906123330 | 74 | 22 | 0.0 | 1.0 | 0.00 | 0.14 | 0.00 | 76 | 1011.1 |
| 20260906122842 | 74 | 22 | 0.0 | 1.0 | 0.00 | 0.14 | 0.00 | 80 | 1011.0 |
| 20260906122340 | 73 | 23 | 0.0 | 2.0 | 0.00 | 0.14 | 0.00 | 82 | 1011.0 |
| 20260906121911 | 73 | 23 | 0.0 | 2.0 | 0.00 | 0.14 | 0.00 | 82 | 1010.9 |
| 20260906121358 | 73 | 327 | 0.0 | 0.0 | 0.00 | 0.14 | 0.00 | 86 | 1011.0 |
| 20260906120852 | 72 | 327 | 0.0 | 1.0 | 0.00 | 0.14 | 0.00 | 88 | 1011.0 |
| 20260906120332 | 72 | 327 | 0.0 | 3.0 | 0.00 | 0.14 | 0.00 | 87 | 1010.9 |
| 20260906115859 | 72 | 36 | 0.0 | 1.0 | 0.00 | 0.14 | 0.00 | 90 | 1010.9 |
| 20260906115342 | 72 | 36 | 0.0 | 0.0 | 0.00 | 0.14 | 0.00 | 89 | 1010.8 |
| 20260906114835 | 72 | 36 | 0.0 | 0.0 | 0.00 | 0.14 | 0.00 | 90 | 1010.8 |
| 20260906114332 | 72 | 36 | 0.0 | 0.0 | 0.00 | 0.14 | 0.00 | 90 | 1010.8 |
| 20260906113844 | 72 | 36 | 0.0 | 0.0 | 0.00 | 0.14 | 0.00 | 90 | 1010.8 |
| 20260906113350 | 72 | 36 | 0.0 | 0.0 | 0.00 | 0.14 | 0.00 | 90 | 1010.6 |
| 20260906112900 | 72 | 167 | 0.0 | 0.0 | 0.00 | 0.14 | 0.00 | 90 | 1010.4 |
| 20260906112332 | 72 | 167 | 0.0 | 0.0 | 0.00 | 0.14 | 0.00 | 90 | 1010.5 |
| 20260906111830 | 72 | 173 | 0.0 | 0.0 | 0.00 | 0.14 | 0.00 | 90 | 1010.4 |
| 20260906111339 | 72 | 168 | 0.0 | 0.0 | 0.00 | 0.14 | 0.00 | 90 | 1010.3 |
| 20260906110908 | 72 | 167 | 0.0 | 0.0 | 0.00 | 0.14 | 0.00 | 90 | 1010.3 |
| 20260906110348 | 72 | 167 | 0.0 | 0.0 | 0.00 | 0.14 | 0.00 | 90 | 1010.2 |
| 20260906105846 | 72 | 167 | 0.0 | 0.0 | 0.00 | 0.14 | 0.00 | 90 | 1010.1 |
| 20260906105345 | 72 | 167 | 0.0 | 0.0 | 0.00 | 0.14 | 0.00 | 90 | 1010.0 |
| 20260906104855 | 72 | 167 | 0.0 | 0.0 | 0.00 | 0.14 | 0.00 | 90 | 1010.0 |
| 20260906104325 | 72 | 167 | 0.0 | 0.0 | 0.00 | 0.14 | 0.00 | 90 | 1010.0 |
| 20260906103839 | 72 | 167 | 0.0 | 0.0 | 0.00 | 0.14 | 0.00 | 90 | 1010.0 |
| 20260906103344 | 72 | 167 | 0.0 | 0.0 | 0.00 | 0.14 | 0.00 | 90 | 1009.9 |
| 20260906102844 | 72 | 167 | 0.0 | 0.0 | 0.00 | 0.14 | 0.00 | 90 | 1009.8 |
| 20260906102338 | 72 | 167 | 0.0 | 0.0 | 0.00 | 0.14 | 0.00 | 90 | 1009.8 |
| 20260906101854 | 72 | 167 | 0.0 | 0.0 | 0.00 | 0.14 | 0.00 | 90 | 1009.7 |
| 20260906101405 | 72 | 167 | 0.0 | 0.0 | 0.00 | 0.14 | 0.00 | 90 | 1009.8 |
| 20260906100904 | 72 | 167 | 0.0 | 0.0 | 0.00 | 0.14 | 0.00 | 90 | 1009.7 |
| 20260906100358 | 72 | 167 | 0.0 | 0.0 | 0.00 | 0.14 | 0.00 | 90 | 1009.6 |
| 20260906095856 | 72 | 167 | 0.0 | 0.0 | 0.00 | 0.14 | 0.00 | 90 | 1009.7 |
| 20260906095332 | 72 | 167 | 0.0 | 0.0 | 0.00 | 0.14 | 0.00 | 90 | 1009.8 |
| 20260906094829 | 72 | 167 | 0.0 | 0.0 | 0.00 | 0.14 | 0.00 | 90 | 1009.6 |
| 20260906094336 | 72 | 167 | 0.0 | 0.0 | 0.00 | 0.14 | 0.00 | 90 | 1009.5 |
| 20260906093900 | 72 | 167 | 0.0 | 0.0 | 0.00 | 0.14 | 0.00 | 90 | 1009.4 |
| 20260906093335 | 72 | 167 | 0.0 | 0.0 | 0.00 | 0.14 | 0.00 | 90 | 1009.4 |
| 20260906092833 | 73 | 167 | 0.0 | 0.0 | 0.00 | 0.14 | 0.00 | 90 | 1009.4 |
| 20260906092326 | 73 | 167 | 0.0 | 0.0 | 0.00 | 0.14 | 0.00 | 90 | 1009.3 |
| 20260906091855 | 73 | 167 | 0.0 | 0.0 | 0.00 | 0.14 | 0.00 | 90 | 1009.3 |
| 20260906091359 | 72 | 167 | 0.0 | 0.0 | 0.00 | 0.14 | 0.00 | 90 | 1009.2 |
| 20260906090857 | 72 | 167 | 0.0 | 0.0 | 0.00 | 0.14 | 0.00 | 90 | 1009.2 |
| 20260906090337 | 72 | 167 | 0.0 | 0.0 | 0.00 | 0.14 | 0.00 | 90 | 1009.2 |
| 20260906085833 | 72 | 167 | 0.0 | 0.0 | 0.00 | 0.14 | 0.00 | 90 | 1009.1 |
| 20260906085410 | 72 | 167 | 0.0 | 0.0 | 0.00 | 0.14 | 0.00 | 90 | 1009.1 |
| 20260906084846 | 72 | 167 | 0.0 | 0.0 | 0.00 | 0.14 | 0.00 | 90 | 1009.1 |
| 20260906084341 | 72 | 167 | 0.0 | 0.0 | 0.00 | 0.14 | 0.00 | 90 | 1009.1 |
| 20260906083833 | 72 | 167 | 0.0 | 0.0 | 0.00 | 0.14 | 0.00 | 90 | 1009.1 |
| 20260906083341 | 72 | 167 | 0.0 | 0.0 | 0.00 | 0.14 | 0.00 | 90 | 1009.1 |
| 20260906082833 | 72 | 167 | 0.0 | 0.0 | 0.00 | 0.14 | 0.00 | 90 | 1009.0 |
| 20260906082410 | 72 | 167 | 0.0 | 0.0 | 0.00 | 0.14 | 0.00 | 90 | 1008.9 |
| 20260906081857 | 72 | 167 | 0.0 | 0.0 | 0.00 | 0.14 | 0.00 | 90 | 1008.8 |
| 20260906081326 | 72 | 167 | 0.0 | 0.0 | 0.00 | 0.14 | 0.00 | 90 | 1008.8 |
| 20260906080847 | 72 | 167 | 0.0 | 0.0 | 0.00 | 0.14 | 0.00 | 90 | 1008.7 |
| 20260906080332 | 72 | 167 | 0.0 | 0.0 | 0.00 | 0.14 | 0.00 | 90 | 1008.7 |
| 20260906075832 | 72 | 167 | 0.0 | 0.0 | 0.00 | 0.14 | 0.00 | 90 | 1008.7 |
| 20260906075334 | 72 | 167 | 0.0 | 0.0 | 0.00 | 0.14 | 0.00 | 90 | 1008.6 |
| 20260906074901 | 72 | 167 | 0.0 | 0.0 | 0.00 | 0.14 | 0.00 | 90 | 1008.6 |
| 20260906074358 | 72 | 167 | 0.0 | 0.0 | 0.00 | 0.14 | 0.00 | 90 | 1008.7 |
| 20260906073839 | 72 | 167 | 0.0 | 0.0 | 0.00 | 0.14 | 0.00 | 90 | 1008.7 |
| 20260906073419 | 72 | 167 | 0.0 | 0.0 | 0.00 | 0.14 | 0.00 | 90 | 1008.6 |
| 20260906072905 | 72 | 167 | 0.0 | 0.0 | 0.00 | 0.14 | 0.00 | 90 | 1008.6 |
| 20260906072333 | 72 | 167 | 0.0 | 0.0 | 0.00 | 0.14 | 0.00 | 90 | 1008.6 |
| 20260906071859 | 72 | 167 | 0.0 | 0.0 | 0.00 | 0.14 | 0.00 | 90 | 1008.6 |
| 20260906071340 | 72 | 167 | 0.0 | 0.0 | 0.00 | 0.14 | 0.00 | 90 | 1008.7 |
| 20260906070841 | 72 | 167 | 0.0 | 0.0 | 0.00 | 0.14 | 0.00 | 90 | 1008.6 |
| 20260906070341 | 72 | 167 | 0.0 | 0.0 | 0.00 | 0.14 | 0.00 | 90 | 1008.5 |
| 20260906065841 | 72 | 167 | 0.0 | 0.0 | 0.00 | 0.14 | 0.00 | 90 | 1008.6 |
| 20260906065414 | 72 | 167 | 0.0 | 0.0 | 0.00 | 0.14 | 0.00 | 90 | 1008.7 |
| 20260906064829 | 72 | 167 | 0.0 | 0.0 | 0.00 | 0.14 | 0.00 | 90 | 1008.7 |
| 20260906064333 | 72 | 167 | 0.0 | 0.0 | 0.00 | 0.14 | 0.00 | 90 | 1008.6 |
| 20260906063841 | 72 | 167 | 0.0 | 0.0 | 0.00 | 0.14 | 0.00 | 90 | 1008.7 |
| 20260906063342 | 72 | 167 | 0.0 | 0.0 | 0.00 | 0.14 | 0.00 | 90 | 1008.7 |
| 20260906062853 | 72 | 167 | 0.0 | 0.0 | 0.00 | 0.14 | 0.00 | 90 | 1008.6 |
| 20260906062332 | 72 | 167 | 0.0 | 0.0 | 0.00 | 0.14 | 0.00 | 90 | 1008.8 |
| 20260906061850 | 72 | 167 | 0.0 | 0.0 | 0.00 | 0.14 | 0.00 | 90 | 1008.8 |
| 20260906061351 | 72 | 167 | 0.0 | 0.0 | 0.00 | 0.14 | 0.00 | 90 | 1008.9 |
| 20260906060857 | 72 | 167 | 0.0 | 0.0 | 0.00 | 0.14 | 0.00 | 90 | 1008.8 |
| 20260906060331 | 72 | 167 | 0.0 | 0.0 | 0.00 | 0.14 | 0.00 | 90 | 1008.7 |
| 20260906055833 | 72 | 167 | 0.0 | 0.0 | 0.00 | 0.14 | 0.00 | 90 | 1008.7 |
| 20260906055346 | 72 | 167 | 0.0 | 0.0 | 0.00 | 0.14 | 0.00 | 90 | 1008.8 |
| 20260906054859 | 72 | 167 | 0.0 | 0.0 | 0.00 | 0.14 | 0.00 | 90 | 1008.8 |
| 20260906054352 | 72 | 167 | 0.0 | 0.0 | 0.00 | 0.14 | 0.00 | 89 | 1008.9 |
| 20260906053837 | 72 | 167 | 0.0 | 0.0 | 0.00 | 0.14 | 0.00 | 89 | 1008.8 |
| 20260906053330 | 72 | 167 | 0.0 | 0.0 | 0.00 | 0.14 | 0.00 | 89 | 1009.0 |
| 20260906052830 | 72 | 167 | 0.0 | 0.0 | 0.00 | 0.14 | 0.00 | 89 | 1009.1 |
| 20260906052347 | 72 | 167 | 0.0 | 0.0 | 0.00 | 0.14 | 0.00 | 89 | 1009.1 |
| 20260906051904 | 72 | 167 | 0.0 | 0.0 | 0.00 | 0.14 | 0.00 | 89 | 1009.2 |
| 20260906051339 | 72 | 167 | 0.0 | 0.0 | 0.00 | 0.14 | 0.00 | 89 | 1009.2 |
| 20260906050838 | 72 | 167 | 0.0 | 0.0 | 0.00 | 0.14 | 0.00 | 89 | 1009.3 |
| 20260906050344 | 72 | 167 | 0.0 | 0.0 | 0.00 | 0.14 | 0.00 | 89 | 1009.1 |
| 20260906045842 | 72 | 167 | 0.0 | 0.0 | 0.00 | 0.14 | 0.00 | 89 | 1009.0 |
| 20260906045339 | 73 | 167 | 0.0 | 0.0 | 0.00 | 0.14 | 0.00 | 89 | 1009.0 |
| 20260906044849 | 73 | 167 | 0.0 | 0.0 | 0.00 | 0.14 | 0.00 | 89 | 1009.1 |
| 20260906044337 | 73 | 167 | 0.0 | 0.0 | 0.00 | 0.14 | 0.00 | 89 | 1009.1 |
| 20260906043831 | 73 | 167 | 0.0 | 0.0 | 0.00 | 0.14 | 0.00 | 89 | 1009.1 |
| 20260906043410 | 73 | 167 | 0.0 | 0.0 | 0.00 | 0.14 | 0.00 | 89 | 1009.1 |
| 20260906042907 | 73 | 167 | 0.0 | 0.0 | 0.00 | 0.14 | 0.00 | 89 | 1009.1 |
| 20260906042333 | 73 | 167 | 0.0 | 0.0 | 0.00 | 0.14 | 0.00 | 89 | 1009.1 |
| 20260906041905 | 73 | 167 | 0.0 | 0.0 | 0.00 | 0.14 | 0.00 | 89 | 1009.1 |
| 20260906041356 | 73 | 167 | 0.0 | 0.0 | 0.00 | 0.14 | 0.00 | 89 | 1009.1 |
| 20260906040839 | 73 | 167 | 0.0 | 0.0 | 0.00 | 0.14 | 0.00 | 89 | 1009.0 |
| 20260906040336 | 73 | 167 | 0.0 | 0.0 | 0.00 | 0.14 | 0.00 | 89 | 1009.1 |
| 20260906035904 | 74 | 167 | 0.0 | 0.0 | 0.00 | 0.14 | 0.14 | 89 | 1009.1 |
| 20260906035403 | 74 | 167 | 0.0 | 0.0 | 0.00 | 0.14 | 0.14 | 89 | 1009.2 |
| 20260906034833 | 74 | 167 | 0.0 | 0.0 | 0.00 | 0.14 | 0.14 | 89 | 1009.3 |
| 20260906034328 | 74 | 167 | 0.0 | 0.0 | 0.00 | 0.14 | 0.14 | 89 | 1009.3 |
| 20260906033832 | 74 | 167 | 0.0 | 0.0 | 0.00 | 0.14 | 0.14 | 89 | 1009.5 |
| 20260906033404 | 74 | 167 | 0.0 | 0.0 | 0.00 | 0.14 | 0.14 | 89 | 1009.5 |
| 20260906032902 | 74 | 167 | 0.0 | 0.0 | 0.00 | 0.14 | 0.14 | 89 | 1009.5 |
| 20260906032335 | 74 | 167 | 0.0 | 0.0 | 0.00 | 0.14 | 0.14 | 89 | 1009.4 |
| 20260906031853 | 74 | 167 | 0.0 | 0.0 | 0.00 | 0.14 | 0.14 | 89 | 1009.4 |
| 20260906031348 | 74 | 167 | 0.0 | 0.0 | 0.00 | 0.14 | 0.14 | 89 | 1009.5 |
| 20260906030855 | 74 | 167 | 0.0 | 0.0 | 0.00 | 0.14 | 0.14 | 89 | 1009.6 |
| 20260906030335 | 74 | 167 | 0.0 | 0.0 | 0.00 | 0.14 | 0.14 | 89 | 1009.5 |
| 20260906025836 | 74 | 167 | 0.0 | 0.0 | 0.00 | 0.14 | 0.14 | 89 | 1009.5 |
| 20260906025345 | 74 | 167 | 0.0 | 0.0 | 0.00 | 0.14 | 0.14 | 89 | 1009.5 |
| 20260906024846 | 75 | 167 | 0.0 | 0.0 | 0.00 | 0.14 | 0.14 | 89 | 1009.5 |
| 20260906024349 | 75 | 167 | 0.0 | 0.0 | 0.00 | 0.14 | 0.14 | 89 | 1009.5 |
| 20260906023834 | 75 | 167 | 0.0 | 0.0 | 0.00 | 0.14 | 0.14 | 89 | 1009.5 |
| 20260906023341 | 75 | 167 | 0.0 | 0.0 | 0.00 | 0.14 | 0.14 | 89 | 1009.5 |
| 20260906022832 | 75 | 167 | 0.0 | 0.0 | 0.00 | 0.14 | 0.14 | 89 | 1009.6 |
| 20260906022337 | 75 | 167 | 0.0 | 0.0 | 0.00 | 0.14 | 0.14 | 89 | 1009.7 |
| 20260906021833 | 75 | 167 | 0.0 | 0.0 | 0.00 | 0.14 | 0.14 | 89 | 1009.5 |
| 20260906021342 | 75 | 167 | 0.0 | 0.0 | 0.00 | 0.14 | 0.14 | 89 | 1009.5 |
| 20260906020901 | 75 | 167 | 0.0 | 0.0 | 0.00 | 0.14 | 0.14 | 89 | 1009.5 |
| 20260906020338 | 75 | 167 | 0.0 | 0.0 | 0.00 | 0.14 | 0.14 | 89 | 1009.5 |
| 20260906015847 | 75 | 167 | 0.0 | 0.0 | 0.00 | 0.14 | 0.14 | 89 | 1009.3 |
| 20260906015346 | 75 | 167 | 0.0 | 0.0 | 0.00 | 0.14 | 0.14 | 89 | 1009.2 |
| 20260906014902 | 75 | 167 | 0.0 | 0.0 | 0.00 | 0.14 | 0.14 | 89 | 1009.1 |
| 20260906014334 | 75 | 167 | 0.0 | 0.0 | 0.00 | 0.14 | 0.14 | 89 | 1009.1 |
| 20260906013840 | 75 | 167 | 0.0 | 0.0 | 0.00 | 0.14 | 0.14 | 89 | 1009.2 |
| 20260906013344 | 75 | 167 | 0.0 | 0.0 | 0.00 | 0.14 | 0.14 | 89 | 1009.2 |
| 20260906012855 | 75 | 167 | 0.0 | 0.0 | 0.00 | 0.14 | 0.14 | 89 | 1009.2 |
| 20260906012353 | 75 | 167 | 0.0 | 0.0 | 0.00 | 0.14 | 0.14 | 89 | 1009.2 |
| 20260906011842 | 75 | 167 | 0.0 | 0.0 | 0.00 | 0.14 | 0.14 | 89 | 1009.1 |
| 20260906011341 | 75 | 167 | 0.0 | 0.0 | 0.00 | 0.14 | 0.14 | 89 | 1009.1 |
| 20260906010840 | 75 | 167 | 0.0 | 0.0 | 0.00 | 0.14 | 0.14 | 89 | 1009.0 |
| 20260906010344 | 75 | 167 | 0.0 | 0.0 | 0.00 | 0.14 | 0.14 | 89 | 1008.9 |
| 20260906005829 | 75 | 167 | 0.0 | 0.0 | 0.00 | 0.14 | 0.14 | 88 | 1008.8 |
| 20260906005347 | 75 | 167 | 0.0 | 0.0 | 0.00 | 0.14 | 0.14 | 88 | 1008.7 |
| 20260906004840 | 75 | 167 | 0.0 | 0.0 | 0.00 | 0.14 | 0.14 | 88 | 1008.5 |
| 20260906004341 | 75 | 167 | 0.0 | 0.0 | 0.00 | 0.14 | 0.14 | 88 | 1008.4 |
| 20260906003839 | 75 | 167 | 0.0 | 0.0 | 0.00 | 0.14 | 0.14 | 88 | 1008.4 |
| 20260906003355 | 75 | 167 | 0.0 | 0.0 | 0.00 | 0.14 | 0.14 | 88 | 1008.3 |
| 20260906002831 | 75 | 167 | 0.0 | 0.0 | 0.00 | 0.14 | 0.14 | 88 | 1008.3 |
| 20260906002332 | 75 | 167 | 0.0 | 0.0 | 0.00 | 0.14 | 0.14 | 88 | 1008.1 |
| 20260906001905 | 75 | 167 | 0.0 | 0.0 | 0.00 | 0.14 | 0.14 | 88 | 1008.0 |
| 20260906001337 | 76 | 167 | 0.0 | 0.0 | 0.00 | 0.14 | 0.14 | 88 | 1008.0 |
| 20260906000905 | 76 | 167 | 0.0 | 0.0 | 0.00 | 0.14 | 0.14 | 88 | 1008.1 |
| 20260906000340 | 76 | 167 | 0.0 | 0.0 | 0.00 | 0.14 | 0.14 | 88 | 1008.0 |
| 20260905235840 | 76 | 167 | 0.0 | 0.0 | 0.00 | 0.14 | 0.14 | 87 | 1008.0 |
| 20260905235327 | 76 | 167 | 0.0 | 0.0 | 0.00 | 0.14 | 0.14 | 87 | 1007.9 |
| 20260905234834 | 76 | 167 | 0.0 | 0.0 | 0.00 | 0.14 | 0.14 | 87 | 1007.9 |
| 20260905234334 | 76 | 167 | 0.0 | 0.0 | 0.00 | 0.14 | 0.14 | 87 | 1007.9 |
| 20260905233839 | 76 | 167 | 0.0 | 0.0 | 0.00 | 0.14 | 0.14 | 87 | 1007.9 |
| 20260905233336 | 77 | 167 | 0.0 | 0.0 | 0.00 | 0.14 | 0.14 | 87 | 1008.0 |
| 20260905232841 | 77 | 167 | 0.0 | 0.0 | 0.00 | 0.14 | 0.14 | 87 | 1008.0 |
| 20260905232341 | 77 | 167 | 0.0 | 0.0 | 0.00 | 0.14 | 0.14 | 87 | 1008.2 |
| 20260905231830 | 77 | 165 | 0.0 | 0.0 | 0.00 | 0.14 | 0.14 | 87 | 1008.1 |
| 20260905231334 | 77 | 71 | 0.0 | 0.0 | 0.00 | 0.14 | 0.14 | 86 | 1008.1 |
| 20260905230853 | 77 | 56 | 0.0 | 0.0 | 0.00 | 0.14 | 0.14 | 86 | 1008.2 |
| 20260905230352 | 77 | 56 | 0.0 | 0.0 | 0.00 | 0.14 | 0.14 | 86 | 1008.0 |
| 20260905225848 | 77 | 56 | 0.0 | 0.0 | 0.00 | 0.14 | 0.14 | 86 | 1007.9 |
| 20260905225330 | 77 | 62 | 0.0 | 0.0 | 0.00 | 0.14 | 0.14 | 86 | 1007.8 |
| 20260905224850 | 77 | 62 | 0.0 | 0.0 | 0.00 | 0.14 | 0.14 | 85 | 1007.8 |
| 20260905224355 | 78 | 62 | 0.0 | 0.0 | 0.00 | 0.14 | 0.14 | 85 | 1007.8 |
| 20260905223830 | 78 | 62 | 0.0 | 0.0 | 0.00 | 0.14 | 0.14 | 84 | 1007.9 |
| 20260905223339 | 78 | 62 | 0.0 | 0.0 | 0.00 | 0.14 | 0.14 | 84 | 1007.9 |
| 20260905222835 | 78 | 62 | 0.0 | 0.0 | 0.00 | 0.14 | 0.14 | 84 | 1008.0 |
| 20260905222334 | 78 | 62 | 0.0 | 0.0 | 0.00 | 0.14 | 0.14 | 83 | 1007.9 |
| 20260905221854 | 78 | 62 | 0.0 | 0.0 | 0.00 | 0.14 | 0.14 | 84 | 1007.9 |
| 20260905221334 | 78 | 62 | 0.0 | 0.0 | 0.00 | 0.14 | 0.14 | 84 | 1008.0 |
| 20260905220835 | 78 | 62 | 0.0 | 1.0 | 0.00 | 0.14 | 0.14 | 83 | 1008.1 |
| 20260905220339 | 78 | 61 | 0.0 | 1.0 | 0.00 | 0.14 | 0.14 | 83 | 1008.2 |
| 20260905215850 | 78 | 61 | 0.0 | 1.0 | 0.00 | 0.14 | 0.14 | 84 | 1008.0 |
| 20260905215337 | 78 | 144 | 0.0 | 2.0 | 0.00 | 0.14 | 0.14 | 85 | 1007.9 |
| 20260905214854 | 78 | 138 | 0.0 | 2.0 | 0.00 | 0.14 | 0.14 | 86 | 1007.9 |
| 20260905214347 | 78 | 111 | 0.0 | 0.0 | 0.00 | 0.14 | 0.14 | 87 | 1007.9 |
| 20260905213919 | 77 | 111 | 0.0 | 0.0 | 0.00 | 0.14 | 0.14 | 86 | 1008.0 |
| 20260905213356 | 78 | 110 | 0.0 | 0.0 | 0.00 | 0.14 | 0.14 | 87 | 1007.8 |
| 20260905212851 | 78 | 111 | 0.0 | 0.0 | 0.00 | 0.14 | 0.14 | 86 | 1007.9 |
| 20260905212334 | 78 | 110 | 0.0 | 0.0 | 0.00 | 0.14 | 0.14 | 86 | 1008.0 |
| 20260905211833 | 78 | 110 | 0.0 | 1.0 | 0.00 | 0.14 | 0.14 | 85 | 1008.1 |
| 20260905211333 | 78 | 111 | 0.0 | 1.0 | 0.00 | 0.14 | 0.14 | 85 | 1008.0 |
| 20260905210849 | 78 | 111 | 0.0 | 1.0 | 0.00 | 0.14 | 0.14 | 85 | 1007.9 |
| 20260905210345 | 78 | 115 | 0.0 | 1.0 | 0.00 | 0.14 | 0.14 | 85 | 1008.0 |
| 20260905205855 | 78 | 156 | 0.0 | 0.0 | 0.00 | 0.14 | 0.14 | 86 | 1008.1 |
| 20260905205331 | 78 | 148 | 0.0 | 0.0 | 0.00 | 0.14 | 0.14 | 86 | 1008.0 |
| 20260905204843 | 78 | 136 | 0.0 | 0.0 | 0.00 | 0.14 | 0.14 | 86 | 1007.9 |
| 20260905204332 | 78 | 102 | 0.0 | 0.0 | 0.00 | 0.14 | 0.14 | 86 | 1008.0 |
| 20260905203906 | 78 | 104 | 0.0 | 0.0 | 0.00 | 0.14 | 0.14 | 86 | 1007.9 |
| 20260905203402 | 78 | 107 | 0.0 | 0.0 | 0.00 | 0.14 | 0.14 | 86 | 1007.9 |
| 20260905202828 | 78 | 98 | 0.0 | 0.0 | 0.00 | 0.14 | 0.14 | 86 | 1007.8 |
| 20260905202331 | 78 | 98 | 0.0 | 0.0 | 0.00 | 0.14 | 0.14 | 85 | 1007.7 |
| 20260905201833 | 78 | 98 | 0.0 | 0.0 | 0.00 | 0.14 | 0.14 | 84 | 1007.9 |
| 20260905201337 | 78 | 98 | 0.0 | 0.0 | 0.00 | 0.14 | 0.14 | 85 | 1008.0 |
| 20260905200902 | 78 | 98 | 0.0 | 0.0 | 0.00 | 0.14 | 0.14 | 84 | 1008.0 |
| 20260905200404 | 78 | 98 | 0.0 | 0.0 | 0.00 | 0.14 | 0.14 | 84 | 1008.0 |
| 20260905195902 | 78 | 98 | 0.0 | 0.0 | 0.00 | 0.14 | 0.14 | 85 | 1008.0 |
| 20260905195326 | 79 | 98 | 0.0 | 0.0 | 0.00 | 0.14 | 0.14 | 85 | 1008.0 |
| 20260905194832 | 79 | 98 | 0.0 | 0.0 | 0.00 | 0.14 | 0.14 | 84 | 1007.8 |
| 20260905194331 | 79 | 98 | 0.0 | 1.0 | 0.00 | 0.14 | 0.14 | 84 | 1008.3 |
| 20260905193909 | 79 | 98 | 0.0 | 1.0 | 0.00 | 0.14 | 0.14 | 84 | 1008.5 |
| 20260905193342 | 78 | 11 | 0.0 | 0.0 | 0.00 | 0.14 | 0.14 | 83 | 1008.2 |
| 20260905192837 | 78 | 63 | 0.0 | 0.0 | 0.00 | 0.14 | 0.14 | 84 | 1008.0 |
| 20260905192401 | 78 | 63 | 0.0 | 0.0 | 0.00 | 0.14 | 0.14 | 85 | 1007.9 |
| 20260905191833 | 78 | 63 | 0.0 | 0.0 | 0.00 | 0.14 | 0.14 | 84 | 1008.0 |
| 20260905191342 | 79 | 63 | 0.0 | 0.0 | 0.00 | 0.14 | 0.14 | 83 | 1008.1 |
| 20260905190847 | 79 | 63 | 0.0 | 0.0 | 0.00 | 0.14 | 0.14 | 82 | 1008.1 |
| 20260905190349 | 79 | 63 | 0.0 | 0.0 | 0.00 | 0.14 | 0.14 | 80 | 1008.2 |
| 20260905185907 | 79 | 63 | 0.0 | 0.0 | 0.02 | 0.14 | 0.14 | 80 | 1008.1 |
| 20260905185421 | 79 | 63 | 0.0 | 0.0 | 0.03 | 0.14 | 0.14 | 85 | 1008.1 |
| 20260905184858 | 79 | 63 | 0.0 | 0.0 | 0.05 | 0.14 | 0.14 | 83 | 1008.2 |
| 20260905184338 | 78 | 63 | 0.0 | 0.0 | 0.07 | 0.14 | 0.14 | 82 | 1008.4 |
| 20260905183841 | 78 | 63 | 0.0 | 0.0 | 0.11 | 0.14 | 0.14 | 85 | 1008.6 |
| 20260905183357 | 78 | 63 | 0.0 | 1.0 | 0.14 | 0.14 | 0.14 | 87 | 1008.6 |
| 20260905160845 | 88 | 225 | 1.0 | 3.0 | 0.00 | 0.00 | 0.00 | 57 | 1009.1 |
| 20260905160331 | 88 | 320 | 0.0 | 2.0 | 0.00 | 0.00 | 0.00 | 58 | 1009.1 |
| 20260905155837 | 88 | 283 | 0.0 | 3.0 | 0.00 | 0.00 | 0.00 | 57 | 1009.0 |
| 20260905155334 | 89 | 65 | 0.0 | 3.0 | 0.00 | 0.00 | 0.00 | 56 | 1009.1 |
| 20260905154832 | 89 | 339 | 0.0 | 2.0 | 0.00 | 0.00 | 0.00 | 57 | 1009.0 |
| 20260905154405 | 89 | 360 | 0.0 | 2.0 | 0.00 | 0.00 | 0.00 | 57 | 1009.2 |
| 20260905153835 | 88 | 360 | 0.0 | 2.0 | 0.00 | 0.00 | 0.00 | 58 | 1009.2 |
| 20260905153411 | 88 | 321 | 1.0 | 2.0 | 0.00 | 0.00 | 0.00 | 59 | 1009.2 |
| 20260905152836 | 87 | 288 | 0.0 | 2.0 | 0.00 | 0.00 | 0.00 | 60 | 1009.4 |
| 20260905152333 | 87 | 173 | 0.0 | 3.0 | 0.00 | 0.00 | 0.00 | 59 | 1009.4 |
| 20260905151904 | 87 | 9 | 0.0 | 3.0 | 0.00 | 0.00 | 0.00 | 60 | 1009.5 |
| 20260905151408 | 87 | 145 | 0.0 | 2.0 | 0.00 | 0.00 | 0.00 | 61 | 1009.5 |
| 20260905150835 | 87 | 129 | 0.0 | 3.0 | 0.00 | 0.00 | 0.00 | 59 | 1009.5 |